{"data":{"norad_id":69099,"epoch":"2026-05-15T19:54:07.492896Z","epoch_age_seconds":863831,"freshness":"AGED","line1":"1 69099U 26106C   26135.82925339  .00000503  00000+0  34035-4 0  9992","line2":"2 69099  97.5086 218.5071 0012917 274.2037  85.7716 15.10839506   102","mean_motion":15.10839506,"eccentricity":0.0012917,"inclination_deg":97.5086,"raan_deg":218.5071,"arg_perigee_deg":274.2037,"mean_anomaly_deg":85.7716,"bstar":3.4035e-5,"rev_number":10,"period_min":95.311248764765,"perigee_km":524.71050007296,"apogee_km":542.56638074571,"semimajor_km":6911.7754404093,"source":"CELESTRAK","updated_at":"2026-05-25T13:38:09.294604Z"}}